This is the latest recevied weather packets stored in our database for station/object KC4JY. If no packets are shown the sender has not sent any weather packets the latest 10 day(s).
| Time | Temp. | Humidity | Pressure | Rain* | Wind** | Luminosity | Snow |
|---|---|---|---|---|---|---|---|
| 1777442423 | 12.78° C | 88% | 1015.4 hPa | 0 mm | - | - | - |
| 1777441503 | 12.78° C | 88% | 1015.5 hPa | 0 mm | - | - | - |
| 1777440660 | 13.33° C | 88% | 1015.9 hPa | 0 mm | - | - | - |
| 1777439746 | 13.33° C | 88% | 1016.1 hPa | 0 mm | - | - | - |
| 1777438838 | 13.33° C | 88% | 1016.6 hPa | 0 mm | - | - | - |
| 1777437918 | 13.33° C | 87% | 1016.9 hPa | 0 mm | - | - | - |
| 1777437016 | 13.89° C | 87% | 1017 hPa | 0 mm | - | - | - |
| 1777436105 | 13.89° C | 86% | 1016.9 hPa | 0 mm | - | - | - |
| 1777435205 | 13.89° C | 86% | 1017.1 hPa | 0 mm | - | - | - |
| 1777434302 | 13.89° C | 85% | 1017.4 hPa | 0 mm | - | - | - |
| 1777433402 | 13.89° C | 84% | 1017.5 hPa | 0 mm | - | - | - |
| 1777432588 | 14.44° C | 84% | 1017.7 hPa | 0 mm | - | - | - |
| 1777431661 | 14.44° C | 83% | 1017.8 hPa | 0 mm | - | - | - |
| 1777430760 | 14.44° C | 82% | 1017.5 hPa | 0 mm | - | - | - |
| 1777429860 | 14.44° C | 83% | 1017.5 hPa | 0 mm | - | - | - |
| 1777428941 | 15° C | 83% | 1017.3 hPa | 0 mm | - | - | - |
| 1777428041 | 15° C | 82% | 1017.5 hPa | 0 mm | - | - | - |
| 1777427138 | 15° C | 80% | 1016.9 hPa | 0 mm | - | - | - |
| 1777426229 | 15.56° C | 78% | 1017.2 hPa | 0 mm | - | - | - |
| 1777425328 | 16.11° C | 77% | 1017 hPa | 0 mm | - | - | - |
| 1777424427 | 16.11° C | 76% | 1016.6 hPa | 0 mm | - | - | - |
| 1777423527 | 16.67° C | 73% | 1016.4 hPa | 0 mm | - | - | - |
| 1777422626 | 17.22° C | 72% | 1015.9 hPa | 0 mm | - | - | - |
| 1777421725 | 17.78° C | 71% | 1016.1 hPa | 0 mm | - | - | - |
| 1777420824 | 18.33° C | 69% | 1016.1 hPa | 0 mm | - | - | - |
* Rain latest hour (hover to see other rain measurements)
** Current wind speed in m/s (hover to see current wind gust speed)